CW0311 Weather Reports


time (UTC)temp
C
wind
direction
speed
KPH
gust
KPH
rain 1hr
cm
rain 24hr
cm
rain mn
cm
humidity
%
barometer
mb
20260504223105 17 254 4.8 19.3 0.00 0.00 0.00 53 1011.5
20260504221546 18 262 4.8 14.5 0.00 0.00 0.00 52 1011.5
20260504220046 18 270 4.8 17.7 0.00 0.00 0.00 51 1011.4
20260504214546 19 274 9.7 27.4 0.00 0.00 0.00 46 1011.3
20260504213055 20 284 11.3 22.5 0.00 0.00 0.00 45 1011.3
20260504211543 20 310 11.3 24.1 0.00 0.00 0.00 44 1011.3
20260504210042 20 288 3.2 24.1 0.00 0.00 0.00 43 1011.3
20260504204546 20 280 14.5 30.6 0.00 0.00 0.00 43 1011.3
20260504203049 20 268 6.4 25.7 0.00 0.00 0.00 46 1011.2
20260504201537 20 288 11.3 19.3 0.00 0.00 0.00 47 1011.3
20260504200036 18 284 9.7 25.7 0.00 0.00 0.00 50 1011.4
20260504194536 19 286 16.1 32.2 0.00 0.00 0.00 46 1011.5
20260504193035 19 277 16.1 29.0 0.00 0.00 0.00 45 1011.7
20260504191532 20 287 9.7 35.4 0.00 0.00 0.00 47 1011.6
20260504190031 20 213 11.3 32.2 0.00 0.00 0.00 47 1011.7
20260504184528 19 281 9.7 32.2 0.00 0.00 0.00 47 1012.1
20260504183026 20 284 11.3 25.7 0.00 0.00 0.00 46 1012.2
20260504181525 19 295 20.9 45.1 0.00 0.00 0.00 43 1012.3
20260504180024 19 292 16.1 32.2 0.00 0.00 0.00 45 1012.2
20260504174521 19 285 11.3 27.4 0.00 0.00 0.00 44 1012.7
20260504173018 18 284 9.7 33.8 0.00 0.00 0.00 48 1012.8
20260504171515 18 268 11.3 32.2 0.00 0.00 0.00 48 1012.8
20260504150103 16 288 11.3 33.8 0.00 0.00 0.00 53 1014.3
20260504090105 5 294 4.8 11.3 0.00 0.03 0.00 70 1014.9
20260504081553 6 289 4.8 12.9 0.00 0.03 0.00 67 1014.9
20260504044542 6 310 4.8 11.3 0.00 0.03 0.00 63 1015.0
20260504043033 6 274 6.4 12.9 0.00 0.03 0.00 62 1015.2
20260504041531 6 288 4.8 11.3 0.00 0.03 0.00 63 1015.1
20260504040032 6 292 6.4 14.5 0.00 0.03 0.00 63 1015.0
20260504034527 5 288 6.4 12.9 0.00 0.03 0.03 62 1014.8
20260504033025 5 305 4.8 12.9 0.00 0.03 0.03 62 1014.5
20260504031528 5 321 8.0 20.9 0.00 0.03 0.03 62 1014.5
20260504030025 5 296 6.4 12.9 0.00 0.03 0.03 60 1014.5
20260504024523 5 293 4.8 14.5 0.00 0.03 0.03 61 1014.5
20260504023023 4 294 6.4 14.5 0.00 0.03 0.03 65 1014.4
20260504021522 4 297 4.8 11.3 0.00 0.03 0.03 67 1014.3
20260504020023 4 295 1.6 4.8 0.00 0.03 0.03 67 1014.2
20260504014523 5 296 3.2 6.4 0.00 0.03 0.03 66 1014.1
20260504013029 5 296 1.6 4.8 0.00 0.03 0.03 63 1013.9
20260504011521 5 297 3.2 4.8 0.00 0.03 0.03 62 1014.0
20260504010020 5 297 3.2 6.4 0.00 0.03 0.03 61 1013.7
20260504004521 6 297 1.6 4.8 0.00 0.03 0.03 59 1013.6
20260504003022 6 297 1.6 3.2 0.00 0.03 0.03 57 1013.4
20260504001520 6 298 1.6 4.8 0.00 0.03 0.03 57 1013.1
20260504000018 7 299 3.2 6.4 0.00 0.03 0.03 57 1013.1
20260503234518 7 300 4.8 12.9 0.00 0.03 0.03 55 1013.1
20260503233018 7 299 8.0 12.9 0.00 0.03 0.03 55 1012.9
20260503231521 8 304 1.6 16.1 0.00 0.03 0.03 55 1012.8
20260503230018 8 320 4.8 20.9 0.00 0.03 0.03 53 1012.8
20260503224517 8 330 8.0 25.7 0.00 0.03 0.03 53 1012.5